Year,Month,Day,Hour,Minute,Value (Times are PST for temperature in C)
2011,04,28,00,00,3.80
2011,04,28,00,01,3.80
2011,04,28,00,02,3.80
2011,04,28,00,03,3.80
2011,04,28,00,04,3.80
2011,04,28,00,05,3.80
2011,04,28,00,06,3.80
2011,04,28,00,07,3.80
2011,04,28,00,08,3.80
2011,04,28,00,09,3.80
2011,04,28,00,10,3.80
2011,04,28,00,11,3.80
2011,04,28,00,12,3.80
2011,04,28,00,13,3.80
2011,04,28,00,14,3.80
2011,04,28,00,15,3.80
2011,04,28,00,16,3.80
2011,04,28,00,17,3.80
2011,04,28,00,18,3.90
2011,04,28,00,19,3.90
2011,04,28,00,20,3.90
2011,04,28,00,21,3.90
2011,04,28,00,22,3.90
2011,04,28,00,23,3.90
2011,04,28,00,24,3.90
2011,04,28,00,25,3.90
2011,04,28,00,26,3.90
2011,04,28,00,27,3.90
2011,04,28,00,28,3.90
2011,04,28,00,29,3.80
2011,04,28,00,30,3.80
2011,04,28,00,31,3.80
2011,04,28,00,32,3.80
2011,04,28,00,33,3.80
2011,04,28,00,34,3.80
2011,04,28,00,35,3.80
2011,04,28,00,36,3.80
2011,04,28,00,37,3.80
2011,04,28,00,38,3.80
2011,04,28,00,39,3.80
2011,04,28,00,40,3.80
2011,04,28,00,41,3.80
2011,04,28,00,42,3.80
2011,04,28,00,43,3.80
2011,04,28,00,44,3.80
2011,04,28,00,45,3.80
2011,04,28,00,46,3.80
2011,04,28,00,47,3.80
2011,04,28,00,48,3.80
2011,04,28,00,49,3.80
2011,04,28,00,50,3.80
2011,04,28,00,51,3.80
2011,04,28,00,52,3.80
2011,04,28,00,53,3.80
2011,04,28,00,54,3.80
2011,04,28,00,55,3.80
2011,04,28,00,56,3.80
2011,04,28,00,57,3.80
2011,04,28,00,58,3.80
2011,04,28,00,59,3.80
2011,04,28,01,00,3.80
2011,04,28,01,01,3.80
2011,04,28,01,02,3.80
2011,04,28,01,03,3.80
2011,04,28,01,04,3.80
2011,04,28,01,05,3.80
2011,04,28,01,06,3.80
2011,04,28,01,07,3.80
2011,04,28,01,08,3.90
2011,04,28,01,09,3.90
2011,04,28,01,10,3.90
2011,04,28,01,11,3.90
2011,04,28,01,12,3.90
2011,04,28,01,13,3.90
2011,04,28,01,14,3.90
2011,04,28,01,15,3.90
2011,04,28,01,16,3.80
2011,04,28,01,17,3.80
2011,04,28,01,18,3.80
2011,04,28,01,19,3.80
2011,04,28,01,20,3.80
2011,04,28,01,21,3.90
2011,04,28,01,22,3.90
2011,04,28,01,23,3.90
2011,04,28,01,24,4.00
2011,04,28,01,25,4.00
2011,04,28,01,26,4.10
2011,04,28,01,27,4.10
2011,04,28,01,28,4.10
2011,04,28,01,29,4.10
2011,04,28,01,30,4.20
2011,04,28,01,31,4.20
2011,04,28,01,32,4.30
2011,04,28,01,33,4.30
2011,04,28,01,34,4.30
2011,04,28,01,35,4.30
2011,04,28,01,36,4.40
2011,04,28,01,37,4.40
2011,04,28,01,38,4.40
2011,04,28,01,39,4.40
2011,04,28,01,40,4.50
2011,04,28,01,41,4.50
2011,04,28,01,42,4.50
2011,04,28,01,43,4.50
2011,04,28,01,44,4.60
2011,04,28,01,49,4.70
2011,04,28,01,50,4.70
2011,04,28,01,51,4.70
2011,04,28,01,52,4.70
2011,04,28,01,53,4.70
2011,04,28,01,54,4.70
2011,04,28,01,55,4.70
2011,04,28,01,56,4.80
2011,04,28,01,57,4.80
2011,04,28,01,58,4.80
2011,04,28,01,59,4.80
2011,04,28,02,00,4.80
2011,04,28,02,01,4.80
2011,04,28,02,02,4.80
2011,04,28,02,03,4.90
2011,04,28,02,04,4.90
2011,04,28,02,05,4.90
2011,04,28,02,06,5.00
2011,04,28,02,07,5.00
2011,04,28,02,08,5.10
2011,04,28,02,09,5.10
2011,04,28,02,10,5.10
2011,04,28,02,11,5.20
2011,04,28,02,12,5.20
2011,04,28,02,13,5.20
2011,04,28,02,14,5.20
2011,04,28,02,15,5.30
2011,04,28,02,16,5.30
2011,04,28,02,17,5.30
2011,04,28,02,18,5.30
2011,04,28,02,19,5.40
2011,04,28,02,20,5.40
2011,04,28,02,21,5.50
2011,04,28,02,22,5.50
2011,04,28,02,23,5.50
2011,04,28,02,24,5.60
2011,04,28,02,25,5.60
2011,04,28,02,26,5.60
2011,04,28,02,27,5.60
2011,04,28,02,28,5.70
2011,04,28,02,29,5.70
2011,04,28,02,30,5.70
2011,04,28,02,31,5.70
2011,04,28,02,32,5.70
2011,04,28,02,33,5.70
2011,04,28,02,34,5.80
2011,04,28,02,35,5.80
2011,04,28,02,36,5.80
2011,04,28,02,37,5.80
2011,04,28,02,38,5.80
2011,04,28,02,39,5.80
2011,04,28,02,40,5.80
2011,04,28,02,41,5.70
2011,04,28,02,42,5.70
2011,04,28,02,43,5.70
2011,04,28,02,44,5.70
2011,04,28,02,45,5.70
2011,04,28,02,46,5.70
2011,04,28,02,47,5.70
2011,04,28,02,48,5.70
2011,04,28,02,49,5.60
2011,04,28,02,50,5.60
2011,04,28,02,51,5.60
2011,04,28,02,52,5.50
2011,04,28,02,53,5.50
2011,04,28,02,54,5.50
2011,04,28,02,55,5.50
2011,04,28,02,56,5.40
2011,04,28,02,57,5.40
2011,04,28,02,58,5.40
2011,04,28,02,59,5.40
2011,04,28,03,00,5.40
2011,04,28,03,01,5.40
2011,04,28,03,02,5.40
2011,04,28,03,03,5.40
2011,04,28,03,04,5.50
2011,04,28,03,05,5.50
2011,04,28,03,06,5.50
2011,04,28,03,07,5.50
2011,04,28,03,08,5.50
2011,04,28,03,09,5.50
2011,04,28,03,10,5.50
2011,04,28,03,11,5.50
2011,04,28,03,12,5.50
2011,04,28,03,13,5.50
2011,04,28,03,14,5.60
2011,04,28,03,15,5.60
2011,04,28,03,16,5.60
2011,04,28,03,17,5.60
2011,04,28,03,18,5.60
2011,04,28,03,19,5.60
2011,04,28,03,20,5.60
2011,04,28,03,21,5.60
2011,04,28,03,22,5.60
2011,04,28,03,23,5.60
2011,04,28,03,24,5.60
2011,04,28,03,25,5.60
2011,04,28,03,26,5.60
2011,04,28,03,27,5.60
2011,04,28,03,28,5.60
2011,04,28,03,29,5.60
2011,04,28,03,30,5.60
2011,04,28,03,31,5.60
2011,04,28,03,32,5.60
2011,04,28,03,33,5.60
2011,04,28,03,34,5.60
2011,04,28,03,35,5.60
2011,04,28,03,36,5.60
2011,04,28,03,37,5.60
2011,04,28,03,38,5.60
2011,04,28,03,39,5.60
2011,04,28,03,40,5.70
2011,04,28,03,41,5.70
2011,04,28,03,42,5.70
2011,04,28,03,43,5.70
2011,04,28,03,44,5.70
2011,04,28,03,45,5.70
2011,04,28,03,46,5.70
2011,04,28,03,47,5.70
2011,04,28,03,48,5.70
2011,04,28,03,49,5.70
2011,04,28,03,50,5.70
2011,04,28,03,51,5.80
2011,04,28,03,52,5.80
2011,04,28,03,53,5.80
2011,04,28,03,54,5.80
2011,04,28,03,55,5.80
2011,04,28,03,56,5.80
2011,04,28,03,57,5.80
2011,04,28,03,58,5.80
2011,04,28,03,59,5.70
2011,04,28,04,00,5.70
2011,04,28,04,01,5.70
2011,04,28,04,02,5.70
2011,04,28,04,03,5.70
2011,04,28,04,04,5.60
2011,04,28,04,05,5.60
2011,04,28,04,06,5.60
2011,04,28,04,07,5.60
2011,04,28,04,08,5.50
2011,04,28,04,09,5.50
2011,04,28,04,10,5.40
2011,04,28,04,11,5.40
2011,04,28,04,12,5.40
2011,04,28,04,13,5.40
2011,04,28,04,14,5.40
2011,04,28,04,15,5.30
2011,04,28,04,16,5.30
2011,04,28,04,17,5.30
2011,04,28,04,18,5.30
2011,04,28,04,19,5.30
2011,04,28,04,20,5.20
2011,04,28,04,21,5.20
2011,04,28,04,22,5.20
2011,04,28,04,23,5.20
2011,04,28,04,24,5.20
2011,04,28,04,25,5.20
2011,04,28,04,26,5.20
2011,04,28,04,27,5.10
2011,04,28,04,28,5.10
2011,04,28,04,29,5.10
2011,04,28,04,30,5.10
2011,04,28,04,31,5.10
2011,04,28,04,32,5.10
2011,04,28,04,33,5.10
2011,04,28,04,34,5.10
2011,04,28,04,35,5.10
2011,04,28,04,36,5.10
2011,04,28,04,37,5.10
2011,04,28,04,38,5.10
2011,04,28,04,39,5.10
2011,04,28,04,40,5.10
2011,04,28,04,41,5.10
2011,04,28,04,42,5.10
2011,04,28,04,43,5.10
2011,04,28,04,44,5.10
2011,04,28,04,45,5.10
2011,04,28,04,46,5.10
2011,04,28,04,47,5.00
2011,04,28,04,48,5.00
2011,04,28,04,49,5.10
2011,04,28,04,50,5.10
2011,04,28,04,51,5.10
2011,04,28,04,52,5.10
2011,04,28,04,53,5.10
2011,04,28,04,54,5.10
2011,04,28,04,55,5.10
2011,04,28,04,56,5.00
2011,04,28,04,57,5.00
2011,04,28,04,58,5.00
2011,04,28,04,59,5.00
2011,04,28,05,00,5.00
2011,04,28,05,01,5.00
2011,04,28,05,02,4.90
2011,04,28,05,03,4.90
2011,04,28,05,04,4.90
2011,04,28,05,05,4.90
2011,04,28,05,06,4.90
2011,04,28,05,07,4.90
2011,04,28,05,08,4.90
2011,04,28,05,09,4.90
2011,04,28,05,10,4.90
2011,04,28,05,11,5.00
2011,04,28,05,12,5.00
2011,04,28,05,13,5.00
2011,04,28,05,14,5.00
2011,04,28,05,15,5.00
2011,04,28,05,16,5.10
2011,04,28,05,17,5.10
2011,04,28,05,18,5.10
2011,04,28,05,19,5.10
2011,04,28,05,20,5.10
2011,04,28,05,21,5.10
2011,04,28,05,22,5.10
2011,04,28,05,23,5.10
2011,04,28,05,24,5.10
2011,04,28,05,25,5.10
2011,04,28,05,26,5.10
2011,04,28,05,27,5.10
2011,04,28,05,28,5.10
2011,04,28,05,29,5.10
2011,04,28,05,30,5.10
2011,04,28,05,31,5.10
2011,04,28,05,32,5.10
2011,04,28,05,33,5.10
2011,04,28,05,34,5.10
2011,04,28,05,35,5.10
2011,04,28,05,36,5.10
2011,04,28,05,37,5.10
2011,04,28,05,38,5.10
2011,04,28,05,39,5.10
2011,04,28,05,40,5.10
2011,04,28,05,41,5.10
2011,04,28,05,42,5.10
2011,04,28,05,43,5.10
2011,04,28,05,44,5.10
2011,04,28,05,45,5.10
2011,04,28,05,46,5.10
2011,04,28,05,47,5.10
2011,04,28,05,48,5.10
2011,04,28,05,49,5.10
2011,04,28,05,50,5.10
2011,04,28,05,51,5.10
2011,04,28,05,52,5.10
2011,04,28,05,53,5.10
2011,04,28,05,54,5.10
2011,04,28,05,55,5.10
2011,04,28,05,56,5.10
2011,04,28,05,57,5.10
2011,04,28,05,58,5.10
2011,04,28,05,59,5.10
2011,04,28,06,00,5.10
2011,04,28,06,01,5.10
2011,04,28,06,02,5.10
2011,04,28,06,03,5.10
2011,04,28,06,04,5.10
2011,04,28,06,05,5.10
2011,04,28,06,06,5.10
2011,04,28,06,07,5.10
2011,04,28,06,08,5.10
2011,04,28,06,09,5.10
2011,04,28,06,10,5.10
2011,04,28,06,11,5.10
2011,04,28,06,12,5.10
2011,04,28,06,13,5.10
2011,04,28,06,14,5.10
2011,04,28,06,15,5.10
2011,04,28,06,16,5.10
2011,04,28,06,17,5.10
2011,04,28,06,18,5.10
2011,04,28,06,19,5.10
2011,04,28,06,20,5.10
2011,04,28,06,21,5.10
2011,04,28,06,22,5.10
2011,04,28,06,23,5.10
2011,04,28,06,24,5.10
2011,04,28,06,25,5.10
2011,04,28,06,26,5.00
2011,04,28,06,27,5.00
2011,04,28,06,28,5.00
2011,04,28,06,29,4.90
2011,04,28,06,30,4.90
2011,04,28,06,31,4.90
2011,04,28,06,32,4.90
2011,04,28,06,33,4.90
2011,04,28,06,34,4.90
2011,04,28,06,35,4.90
2011,04,28,06,36,4.90
2011,04,28,06,37,4.90
2011,04,28,06,38,4.90
2011,04,28,06,39,4.90
2011,04,28,06,40,4.90
2011,04,28,06,41,4.90
2011,04,28,06,42,4.90
2011,04,28,06,43,4.90
2011,04,28,06,44,4.90
2011,04,28,06,45,4.90
2011,04,28,06,46,4.90
2011,04,28,06,47,4.90
2011,04,28,06,48,4.90
2011,04,28,06,49,4.90
2011,04,28,06,50,4.90
2011,04,28,06,51,4.90
2011,04,28,06,52,4.90
2011,04,28,06,53,4.90
2011,04,28,06,54,4.90
2011,04,28,06,55,4.90
2011,04,28,06,56,4.90
2011,04,28,06,57,4.90
2011,04,28,06,58,4.90
2011,04,28,06,59,4.90
2011,04,28,07,00,4.90
2011,04,28,07,01,4.90
2011,04,28,07,02,4.90
2011,04,28,07,03,4.90
2011,04,28,07,04,4.90
2011,04,28,07,05,4.90
2011,04,28,07,06,4.90
2011,04,28,07,07,4.90
2011,04,28,07,08,4.90
2011,04,28,07,09,4.90
2011,04,28,07,10,4.90
2011,04,28,07,11,4.90
2011,04,28,07,12,5.00
2011,04,28,07,13,5.00
2011,04,28,07,14,5.00
2011,04,28,07,15,5.10
2011,04,28,07,16,5.10
2011,04,28,07,17,5.10
2011,04,28,07,18,5.10
2011,04,28,07,19,5.10
2011,04,28,07,20,5.10
2011,04,28,07,21,5.10
2011,04,28,07,22,5.10
2011,04,28,07,23,5.10
2011,04,28,07,24,5.10
2011,04,28,07,25,5.10
2011,04,28,07,26,5.10
2011,04,28,07,27,5.10
2011,04,28,07,28,5.10
2011,04,28,07,29,5.10
2011,04,28,07,30,5.10
2011,04,28,07,31,5.10
2011,04,28,07,32,5.10
2011,04,28,07,33,5.10
2011,04,28,07,34,5.10
2011,04,28,07,35,5.10
2011,04,28,07,36,5.10
2011,04,28,07,37,5.10
2011,04,28,07,38,5.10
2011,04,28,07,39,5.10
2011,04,28,07,40,5.10
2011,04,28,07,41,5.20
2011,04,28,07,42,5.20
2011,04,28,07,43,5.20
2011,04,28,07,44,5.20
2011,04,28,07,45,5.20
2011,04,28,07,46,5.20
2011,04,28,07,47,5.20
2011,04,28,07,48,5.20
2011,04,28,07,49,5.10
2011,04,28,07,50,5.10
2011,04,28,07,51,5.10
2011,04,28,07,52,5.10
2011,04,28,07,53,5.10
2011,04,28,07,54,5.10
2011,04,28,07,55,5.10
2011,04,28,07,56,5.10
2011,04,28,07,57,5.10
2011,04,28,07,58,5.10
2011,04,28,07,59,5.10
2011,04,28,08,00,5.10
2011,04,28,08,01,5.10
2011,04,28,08,02,5.10
2011,04,28,08,03,5.10
2011,04,28,08,04,5.10
2011,04,28,08,05,5.10
2011,04,28,08,06,5.10
2011,04,28,08,07,5.10
2011,04,28,08,08,5.10
2011,04,28,08,09,5.10
2011,04,28,08,10,5.10
2011,04,28,08,11,5.10
2011,04,28,08,12,5.10
2011,04,28,08,13,5.10
2011,04,28,08,14,5.10
2011,04,28,08,15,5.20
2011,04,28,08,16,5.20
2011,04,28,08,17,5.20
2011,04,28,08,18,5.20
2011,04,28,08,19,5.20
2011,04,28,08,20,5.30
2011,04,28,08,21,5.30
2011,04,28,08,22,5.30
2011,04,28,08,23,5.30
2011,04,28,08,24,5.30
2011,04,28,08,25,5.30
2011,04,28,08,26,5.30
2011,04,28,08,27,5.40
2011,04,28,08,28,5.40
2011,04,28,08,29,5.40
2011,04,28,08,30,5.40
2011,04,28,08,31,5.50
2011,04,28,08,32,5.50
2011,04,28,08,33,5.50
2011,04,28,08,34,5.50
2011,04,28,08,35,5.50
2011,04,28,08,36,5.60
2011,04,28,08,37,5.60
2011,04,28,08,38,5.60
2011,04,28,08,39,5.70
2011,04,28,08,40,5.70
2011,04,28,08,41,5.70
2011,04,28,08,42,5.70
2011,04,28,08,43,5.70
2011,04,28,08,44,5.80
2011,04,28,08,45,5.80
2011,04,28,08,46,5.80
2011,04,28,08,47,5.90
2011,04,28,08,48,5.90
2011,04,28,08,49,5.90
2011,04,28,08,50,6.00
2011,04,28,08,51,6.00
2011,04,28,08,52,6.00
2011,04,28,08,53,6.10
2011,04,28,08,54,6.10
2011,04,28,08,55,6.10
2011,04,28,08,56,6.10
2011,04,28,08,57,6.20
2011,04,28,08,58,6.20
2011,04,28,08,59,6.20
2011,04,28,09,00,6.20
2011,04,28,09,01,6.30
2011,04,28,09,02,6.30
2011,04,28,09,03,6.30
2011,04,28,09,04,6.30
2011,04,28,09,05,6.30
2011,04,28,09,06,6.40
2011,04,28,09,07,6.40
2011,04,28,09,08,6.40
2011,04,28,09,09,6.40
2011,04,28,09,10,6.50
2011,04,28,09,11,6.50
2011,04,28,09,12,6.50
2011,04,28,09,13,6.50
2011,04,28,09,14,6.60
2011,04,28,09,15,6.60
2011,04,28,09,16,6.60
2011,04,28,09,17,6.60
2011,04,28,09,18,6.60
2011,04,28,09,19,6.60
2011,04,28,09,20,6.70
2011,04,28,09,21,6.70
2011,04,28,09,22,6.70
2011,04,28,09,23,6.70
2011,04,28,09,24,6.80
2011,04,28,09,25,6.80
2011,04,28,09,26,6.80
2011,04,28,09,27,6.80
2011,04,28,09,28,6.90
2011,04,28,09,29,6.90
2011,04,28,09,30,7.00
2011,04,28,09,31,7.00
2011,04,28,09,32,7.10
2011,04,28,09,33,7.20
2011,04,28,09,34,7.20
2011,04,28,09,35,7.20
2011,04,28,09,36,7.20
2011,04,28,09,37,7.30
2011,04,28,09,38,7.30
2011,04,28,09,39,7.30
2011,04,28,09,40,7.40
2011,04,28,09,41,7.40
2011,04,28,09,42,7.50
2011,04,28,09,43,7.50
2011,04,28,09,44,7.50
2011,04,28,09,45,7.60
2011,04,28,09,46,7.60
2011,04,28,09,47,7.60
2011,04,28,09,48,7.50
2011,04,28,09,49,7.50
2011,04,28,09,50,7.50
2011,04,28,09,51,7.50
2011,04,28,09,52,7.50
2011,04,28,09,53,7.50
2011,04,28,09,54,7.50
2011,04,28,09,55,7.50
2011,04,28,09,56,7.40
2011,04,28,09,57,7.40
2011,04,28,09,58,7.40
2011,04,28,09,59,7.40
2011,04,28,10,00,7.40
2011,04,28,10,01,7.30
2011,04,28,10,02,7.30
2011,04,28,10,03,7.30
2011,04,28,10,04,7.30
2011,04,28,10,05,7.30
2011,04,28,10,06,7.30
2011,04,28,10,07,7.40
2011,04,28,10,08,7.40
2011,04,28,10,09,7.40
2011,04,28,10,10,7.40
2011,04,28,10,11,7.40
2011,04,28,10,12,7.40
2011,04,28,10,13,7.40
2011,04,28,10,14,7.40
2011,04,28,10,15,7.50
2011,04,28,10,16,7.50
2011,04,28,10,17,7.50
2011,04,28,10,18,7.50
2011,04,28,10,19,7.50
2011,04,28,10,20,7.60
2011,04,28,10,21,7.60
2011,04,28,10,22,7.60
2011,04,28,10,23,7.60
2011,04,28,10,24,7.70
2011,04,28,10,25,7.70
2011,04,28,10,26,7.70
2011,04,28,10,27,7.80
2011,04,28,10,28,7.80
2011,04,28,10,29,7.90
2011,04,28,10,30,8.00
2011,04,28,10,31,8.10
2011,04,28,10,32,8.20
2011,04,28,10,33,8.30
2011,04,28,10,34,8.30
2011,04,28,10,35,8.40
2011,04,28,10,36,8.40
2011,04,28,10,37,8.50
2011,04,28,10,38,8.60
2011,04,28,10,39,8.60
2011,04,28,10,40,8.60
2011,04,28,10,41,8.60
2011,04,28,10,42,8.60
2011,04,28,10,43,8.60
2011,04,28,10,44,8.60
2011,04,28,10,45,8.60
2011,04,28,10,46,8.60
2011,04,28,10,47,8.50
2011,04,28,10,48,8.40
2011,04,28,10,49,8.40
2011,04,28,10,50,8.30
2011,04,28,10,51,8.30
2011,04,28,10,52,8.20
2011,04,28,10,53,8.20
2011,04,28,10,54,8.20
2011,04,28,10,55,8.20
2011,04,28,10,56,8.20
2011,04,28,10,57,8.20
2011,04,28,10,58,8.20
2011,04,28,10,59,8.20
2011,04,28,11,00,8.20
2011,04,28,11,01,8.20
2011,04,28,11,02,8.20
2011,04,28,11,03,8.20
2011,04,28,11,04,8.20
2011,04,28,11,05,8.20
2011,04,28,11,06,8.20
2011,04,28,11,07,8.20
2011,04,28,11,08,8.20
2011,04,28,11,09,8.30
2011,04,28,11,10,8.30
2011,04,28,11,11,8.30
2011,04,28,11,12,8.30
2011,04,28,11,13,8.30
2011,04,28,11,14,8.30
2011,04,28,11,15,8.40
2011,04,28,11,16,8.40
2011,04,28,11,17,8.50
2011,04,28,11,18,8.50
2011,04,28,11,19,8.60
2011,04,28,11,20,8.70
2011,04,28,11,21,8.70
2011,04,28,11,22,8.80
2011,04,28,11,23,8.80
2011,04,28,11,24,8.90
2011,04,28,11,25,9.00
2011,04,28,11,26,9.00
2011,04,28,11,27,9.10
2011,04,28,11,28,9.20
2011,04,28,11,29,9.30
2011,04,28,11,30,9.30
2011,04,28,11,31,9.30
2011,04,28,11,32,9.30
2011,04,28,11,33,9.30
2011,04,28,11,34,9.30
2011,04,28,11,35,9.40
2011,04,28,11,36,9.40
2011,04,28,11,37,9.40
2011,04,28,11,38,9.40
2011,04,28,11,39,9.40
2011,04,28,11,40,9.40
2011,04,28,11,41,9.40
2011,04,28,11,42,9.40
2011,04,28,11,43,9.50
2011,04,28,11,44,9.60
2011,04,28,11,45,9.60
2011,04,28,11,46,9.70
2011,04,28,11,47,9.70
2011,04,28,11,48,9.80
2011,04,28,11,49,9.80
2011,04,28,11,50,9.70
2011,04,28,11,51,9.70
2011,04,28,11,52,9.70
2011,04,28,11,53,9.70
2011,04,28,11,54,9.70
2011,04,28,11,55,9.60
2011,04,28,11,56,9.60
2011,04,28,11,57,9.50
2011,04,28,11,58,9.50
2011,04,28,11,59,9.40
2011,04,28,12,00,9.40
2011,04,28,12,01,9.40
2011,04,28,12,02,9.40
2011,04,28,12,03,9.50
2011,04,28,12,04,9.50
2011,04,28,12,05,9.60
2011,04,28,12,06,9.60
2011,04,28,12,07,9.70
2011,04,28,12,08,9.80
2011,04,28,12,09,9.90
2011,04,28,12,10,10.00
2011,04,28,12,11,10.10
2011,04,28,12,12,10.10
2011,04,28,12,13,10.10
2011,04,28,12,14,10.20
2011,04,28,12,15,10.20
2011,04,28,12,16,10.30
2011,04,28,12,17,10.30
2011,04,28,12,18,10.30
2011,04,28,12,19,10.40
2011,04,28,12,20,10.40
2011,04,28,12,21,10.30
2011,04,28,12,22,10.30
2011,04,28,12,23,10.30
2011,04,28,12,24,10.30
2011,04,28,12,25,10.40
2011,04,28,12,26,10.40
2011,04,28,12,27,10.50
2011,04,28,12,28,10.50
2011,04,28,12,29,10.50
2011,04,28,12,30,10.60
2011,04,28,12,31,10.60
2011,04,28,12,32,10.70
2011,04,28,12,33,10.80
2011,04,28,12,34,10.70
2011,04,28,12,35,10.70
2011,04,28,12,36,10.70
2011,04,28,12,37,10.70
2011,04,28,12,38,10.80
2011,04,28,12,39,10.80
2011,04,28,12,40,10.90
2011,04,28,12,41,10.90
2011,04,28,12,42,10.90
2011,04,28,12,43,10.90
2011,04,28,12,44,10.80
2011,04,28,12,45,10.80
2011,04,28,12,46,10.70
2011,04,28,12,47,10.70
2011,04,28,12,48,10.60
2011,04,28,12,49,10.60
2011,04,28,12,50,10.60
2011,04,28,12,51,10.50
2011,04,28,12,52,10.40
2011,04,28,12,53,10.30
2011,04,28,12,54,10.20
2011,04,28,12,55,10.20
2011,04,28,12,56,10.20
2011,04,28,12,57,10.20
2011,04,28,12,58,10.20
2011,04,28,12,59,10.10
2011,04,28,13,00,10.10
2011,04,28,13,01,10.10
2011,04,28,13,02,10.10
2011,04,28,13,03,10.10
2011,04,28,13,04,10.10
2011,04,28,13,05,10.00
2011,04,28,13,06,10.10
2011,04,28,13,07,10.10
2011,04,28,13,08,10.10
2011,04,28,13,09,10.20
2011,04,28,13,10,10.20
2011,04,28,13,11,10.20
2011,04,28,13,12,10.10
2011,04,28,13,13,10.10
2011,04,28,13,14,10.20
2011,04,28,13,15,10.30
2011,04,28,13,16,10.40
2011,04,28,13,17,10.50
2011,04,28,13,18,10.60
2011,04,28,13,19,10.70
2011,04,28,13,20,10.70
2011,04,28,13,21,10.70
2011,04,28,13,22,10.70
2011,04,28,13,23,10.60
2011,04,28,13,24,10.60
2011,04,28,13,25,10.40
2011,04,28,13,26,10.40
2011,04,28,13,27,10.40
2011,04,28,13,28,10.30
2011,04,28,13,29,10.30
2011,04,28,13,30,10.30
2011,04,28,13,31,10.30
2011,04,28,13,32,10.30
2011,04,28,13,33,10.20
2011,04,28,13,34,10.20
2011,04,28,13,35,10.10
2011,04,28,13,36,10.10
2011,04,28,13,37,10.00
2011,04,28,13,38,9.80
2011,04,28,13,39,9.60
2011,04,28,13,40,9.50
2011,04,28,13,41,9.40
2011,04,28,13,42,9.30
2011,04,28,13,43,9.10
2011,04,28,13,44,8.90
2011,04,28,13,45,8.80
2011,04,28,13,46,8.60
2011,04,28,13,47,8.50
2011,04,28,13,48,8.40
2011,04,28,13,49,8.30
2011,04,28,13,50,8.10
2011,04,28,13,51,8.00
2011,04,28,13,52,7.90
2011,04,28,13,53,7.90
2011,04,28,13,54,7.80
2011,04,28,13,55,7.80
2011,04,28,13,56,7.70
2011,04,28,13,57,7.70
2011,04,28,13,58,7.70
2011,04,28,13,59,7.70
2011,04,28,14,00,7.70
2011,04,28,14,01,7.70
2011,04,28,14,02,7.70
2011,04,28,14,03,7.80
2011,04,28,14,04,7.80
2011,04,28,14,05,7.80
2011,04,28,14,06,7.80
2011,04,28,14,07,7.80
2011,04,28,14,08,7.90
2011,04,28,14,09,7.90
2011,04,28,14,10,7.90
2011,04,28,14,11,7.90
2011,04,28,14,12,7.90
2011,04,28,14,13,7.90
2011,04,28,14,14,7.90
2011,04,28,14,15,7.90
2011,04,28,14,16,7.90
2011,04,28,14,17,8.00
2011,04,28,14,18,8.00
2011,04,28,14,19,8.00
2011,04,28,14,20,7.90
2011,04,28,14,21,7.90
2011,04,28,14,22,8.00
2011,04,28,14,23,8.00
2011,04,28,14,24,7.90
2011,04,28,14,25,7.90
2011,04,28,14,26,7.90
2011,04,28,14,27,8.00
2011,04,28,14,28,8.10
2011,04,28,14,29,8.10
2011,04,28,14,30,8.10
2011,04,28,14,31,8.20
2011,04,28,14,32,8.20
2011,04,28,14,33,8.30
2011,04,28,14,34,8.30
2011,04,28,14,35,8.30
2011,04,28,14,36,8.40
2011,04,28,14,37,8.40
2011,04,28,14,38,8.50
2011,04,28,14,39,8.60
2011,04,28,14,40,8.70
2011,04,28,14,41,8.80
2011,04,28,14,42,8.80
2011,04,28,14,43,8.80
2011,04,28,14,44,8.90
2011,04,28,14,45,8.90
2011,04,28,14,46,8.90
2011,04,28,14,47,8.90
2011,04,28,14,48,9.00
2011,04,28,14,49,9.10
2011,04,28,14,50,9.10
2011,04,28,14,51,9.10
2011,04,28,14,52,9.10
2011,04,28,14,53,9.20
2011,04,28,14,54,9.20
2011,04,28,14,55,9.20
2011,04,28,14,56,9.30
2011,04,28,14,57,9.30
2011,04,28,14,58,9.30
2011,04,28,14,59,9.30
2011,04,28,15,00,9.40
2011,04,28,15,01,9.40
2011,04,28,15,02,9.50
2011,04,28,15,03,9.60
2011,04,28,15,04,9.70
2011,04,28,15,05,9.80
2011,04,28,15,06,9.90
2011,04,28,15,07,9.90
2011,04,28,15,08,10.00
2011,04,28,15,09,10.00
2011,04,28,15,10,10.00
2011,04,28,15,11,10.10
2011,04,28,15,12,10.10
2011,04,28,15,13,10.20
2011,04,28,15,14,10.10
2011,04,28,15,15,10.20
2011,04,28,15,16,10.20
2011,04,28,15,17,10.20
2011,04,28,15,18,10.20
2011,04,28,15,19,10.30
2011,04,28,15,20,10.30
2011,04,28,15,21,10.30
2011,04,28,15,22,10.30
2011,04,28,15,23,10.30
2011,04,28,15,24,10.40
2011,04,28,15,25,10.40
2011,04,28,15,26,10.40
2011,04,28,15,27,10.50
2011,04,28,15,28,10.60
2011,04,28,15,29,10.60
2011,04,28,15,30,10.70
2011,04,28,15,31,10.70
2011,04,28,15,32,10.80
2011,04,28,15,33,10.80
2011,04,28,15,34,10.80
2011,04,28,15,35,10.80
2011,04,28,15,36,10.90
2011,04,28,15,37,10.90
2011,04,28,15,38,11.00
2011,04,28,15,39,10.90
2011,04,28,15,40,10.90
2011,04,28,15,41,10.90
2011,04,28,15,42,10.90
2011,04,28,15,43,10.90
2011,04,28,15,44,10.80
2011,04,28,15,45,10.70
2011,04,28,15,46,10.70
2011,04,28,15,47,10.70
2011,04,28,15,48,10.70
2011,04,28,15,49,10.70
2011,04,28,15,50,10.70
2011,04,28,15,51,10.80
2011,04,28,15,52,10.80
2011,04,28,15,53,10.80
2011,04,28,15,54,10.90
2011,04,28,15,55,10.90
2011,04,28,15,56,11.00
2011,04,28,15,57,11.10
2011,04,28,15,58,11.10
2011,04,28,15,59,11.00
2011,04,28,16,00,11.00
2011,04,28,16,01,11.00
2011,04,28,16,02,11.00
2011,04,28,16,03,11.00
2011,04,28,16,04,11.00
2011,04,28,16,05,11.00
2011,04,28,16,06,11.10
2011,04,28,16,07,11.10
2011,04,28,16,08,11.10
2011,04,28,16,09,11.20
2011,04,28,16,10,11.20
2011,04,28,16,11,11.20
2011,04,28,16,12,11.20
2011,04,28,16,13,11.20
2011,04,28,16,14,11.20
2011,04,28,16,15,11.20
2011,04,28,16,16,11.20
2011,04,28,16,17,11.20
2011,04,28,16,18,11.30
2011,04,28,16,19,11.30
2011,04,28,16,20,11.40
2011,04,28,16,21,11.40
2011,04,28,16,22,11.40
2011,04,28,16,23,11.50
2011,04,28,16,24,11.50
2011,04,28,16,25,11.50
2011,04,28,16,26,11.50
2011,04,28,16,27,11.60
2011,04,28,16,28,11.60
2011,04,28,16,29,11.60
2011,04,28,16,30,11.60
2011,04,28,16,31,11.70
2011,04,28,16,32,11.70
2011,04,28,16,33,11.70
2011,04,28,16,34,11.70
2011,04,28,16,35,11.70
2011,04,28,16,36,11.70
2011,04,28,16,37,11.70
2011,04,28,16,38,11.70
2011,04,28,16,39,11.70
2011,04,28,16,40,11.70
2011,04,28,16,41,11.60
2011,04,28,16,42,11.60
2011,04,28,16,43,11.50
2011,04,28,16,44,11.40
2011,04,28,16,45,11.40
2011,04,28,16,46,11.40
2011,04,28,16,47,11.40
2011,04,28,16,48,11.40
2011,04,28,16,49,11.40
2011,04,28,16,50,11.40
2011,04,28,16,51,11.50
2011,04,28,16,52,11.50
2011,04,28,16,53,11.60
2011,04,28,16,54,11.60
2011,04,28,16,55,11.70
2011,04,28,16,56,11.80
2011,04,28,16,57,11.90
2011,04,28,16,58,12.00
2011,04,28,16,59,12.00
2011,04,28,17,00,12.10
2011,04,28,17,01,12.10
2011,04,28,17,02,12.10
2011,04,28,17,03,12.10
2011,04,28,17,04,12.00
2011,04,28,17,05,12.00
2011,04,28,17,06,12.00
2011,04,28,17,07,12.00
2011,04,28,17,08,12.10
2011,04,28,17,09,12.10
2011,04,28,17,10,12.10
2011,04,28,17,11,12.10
2011,04,28,17,12,12.20
2011,04,28,17,13,12.20
2011,04,28,17,14,12.20
2011,04,28,17,15,12.20
2011,04,28,17,16,12.20
2011,04,28,17,17,12.20
2011,04,28,17,18,12.20
2011,04,28,17,19,12.10
2011,04,28,17,20,12.10
2011,04,28,17,21,12.00
2011,04,28,17,22,11.90
2011,04,28,17,23,11.90
2011,04,28,17,24,11.90
2011,04,28,17,25,11.80
2011,04,28,17,26,11.80
2011,04,28,17,27,11.80
2011,04,28,17,28,11.80
2011,04,28,17,29,11.80
2011,04,28,17,30,11.80
2011,04,28,17,31,11.90
2011,04,28,17,32,11.90
2011,04,28,17,33,11.90
2011,04,28,17,34,12.00
2011,04,28,17,35,12.10
2011,04,28,17,36,12.20
2011,04,28,17,37,12.20
2011,04,28,17,38,12.30
2011,04,28,17,39,12.40
2011,04,28,17,40,12.30
2011,04,28,17,41,12.30
2011,04,28,17,42,12.30
2011,04,28,17,43,12.20
2011,04,28,17,44,12.10
2011,04,28,17,45,12.10
2011,04,28,17,46,12.00
2011,04,28,17,47,11.90
2011,04,28,17,48,11.90
2011,04,28,17,49,11.90
2011,04,28,17,50,11.90
2011,04,28,17,51,12.00
2011,04,28,17,52,12.10
2011,04,28,17,53,12.20
2011,04,28,17,54,12.20
2011,04,28,17,55,12.30
2011,04,28,17,56,12.30
2011,04,28,17,57,12.40
2011,04,28,17,58,12.40